| time (UTC) | temp F | wind direction | speed MPH | gust MPH | rain 1hr in | rain 24hr in | rain mn in | humidity % | barometer mb |
| 20260505065230 | 43 | 181 | 0.0 | 2.0 | 0.02 | 0.10 | 0.02 | 96 | 976.8 |
| 20260505064729 | 43 | 200 | 0.0 | 1.0 | 0.01 | 0.09 | 0.02 | 96 | 976.8 |
| 20260505064228 | 44 | 168 | 0.0 | 1.0 | 0.01 | 0.09 | 0.01 | 96 | 976.8 |
| 20260505063730 | 44 | 153 | 0.0 | 1.0 | 0.00 | 0.08 | 0.00 | 96 | 976.8 |
| 20260505063726 | 44 | 158 | 0.0 | 1.0 | 0.01 | 0.09 | 0.01 | 96 | 976.8 |
| 20260505062729 | 44 | 160 | 0.0 | 0.0 | 0.01 | 0.08 | 0.00 | 96 | 976.8 |
| 20260505062725 | 44 | 157 | 0.0 | 1.0 | 0.00 | 0.08 | 0.00 | 96 | 976.7 |
| 20260505061725 | 44 | 160 | 0.0 | 0.0 | 0.01 | 0.08 | 0.00 | 96 | 976.8 |
| 20260505061225 | 44 | 180 | 0.0 | 0.0 | 0.02 | 0.08 | 0.00 | 95 | 976.8 |
| 20260505060725 | 44 | 183 | 0.0 | 0.0 | 0.02 | 0.08 | 0.00 | 96 | 976.8 |
| 20260505060225 | 44 | 183 | 0.0 | 2.0 | 0.02 | 0.08 | 0.00 | 95 | 976.6 |
| 20260505055725 | 44 | 195 | 0.0 | 2.0 | 0.03 | 0.08 | 0.08 | 95 | 976.7 |
| 20260505055224 | 44 | 150 | 0.0 | 1.0 | 0.03 | 0.08 | 0.08 | 95 | 976.7 |
| 20260505054729 | 43 | 342 | 0.0 | 0.0 | 0.04 | 0.08 | 0.08 | 95 | 976.7 |
| 20260505054724 | 44 | 137 | 0.0 | 1.0 | 0.04 | 0.08 | 0.08 | 95 | 976.8 |
| 20260505053724 | 44 | 342 | 0.0 | 0.0 | 0.04 | 0.08 | 0.08 | 95 | 976.5 |
| 20260505053224 | 44 | 342 | 0.0 | 2.0 | 0.04 | 0.08 | 0.08 | 95 | 976.6 |
| 20260505052725 | 44 | 342 | 1.0 | 5.0 | 0.04 | 0.08 | 0.08 | 95 | 976.8 |
| 20260505052224 | 44 | 11 | 1.0 | 5.0 | 0.03 | 0.07 | 0.07 | 95 | 976.9 |
| 20260505051725 | 44 | 338 | 1.0 | 5.0 | 0.03 | 0.07 | 0.07 | 95 | 976.9 |
| 20260505051224 | 44 | 325 | 1.0 | 3.0 | 0.02 | 0.06 | 0.06 | 95 | 977.0 |
| 20260505050728 | 44 | 319 | 2.0 | 5.0 | 0.03 | 0.06 | 0.06 | 94 | 977.0 |
| 20260505050724 | 44 | 358 | 1.0 | 4.0 | 0.02 | 0.06 | 0.06 | 95 | 977.3 |
| 20260505041724 | 45 | 10 | 0.0 | 2.0 | 0.04 | 0.04 | 0.04 | 94 | 976.9 |
| 20260505041222 | 45 | 326 | 0.0 | 2.0 | 0.04 | 0.04 | 0.04 | 93 | 976.7 |
| 20260505040722 | 45 | 338 | 0.0 | 1.0 | 0.04 | 0.04 | 0.04 | 93 | 976.8 |
| 20260505040222 | 45 | 186 | 0.0 | 2.0 | 0.03 | 0.03 | 0.03 | 93 | 976.6 |
| 20260505035723 | 45 | 186 | 1.0 | 4.0 | 0.03 | 0.03 | 0.03 | 93 | 976.5 |
| 20260505035226 | 45 | 229 | 2.0 | 8.0 | 0.02 | 0.02 | 0.02 | 92 | 976.6 |
| 20260505035222 | 45 | 217 | 2.0 | 7.0 | 0.02 | 0.02 | 0.02 | 92 | 976.5 |
| 20260505034222 | 45 | 227 | 2.0 | 8.0 | 0.01 | 0.01 | 0.01 | 91 | 976.6 |
| 20260505033722 | 46 | 210 | 2.0 | 5.0 | 0.01 | 0.01 | 0.01 | 90 | 976.7 |
| 20260505033222 | 46 | 217 | 1.0 | 4.0 | 0.01 | 0.01 | 0.01 | 89 | 976.6 |
| 20260505032720 | 47 | 176 | 0.0 | 3.0 | 0.01 | 0.01 | 0.01 | 83 | 976.5 |
| 20260505032220 | 48 | 226 | 0.0 | 2.0 | 0.01 | 0.01 | 0.01 | 78 | 976.3 |
| 20260505031720 | 48 | 266 | 1.0 | 5.0 | 0.00 | 0.00 | 0.00 | 77 | 976.5 |
| 20260505031219 | 48 | 221 | 1.0 | 5.0 | 0.00 | 0.00 | 0.00 | 75 | 976.3 |
| 20260505030718 | 48 | 219 | 0.0 | 4.0 | 0.00 | 0.00 | 0.00 | 75 | 976.3 |
| 20260505030218 | 48 | 233 | 0.0 | 3.0 | 0.00 | 0.00 | 0.00 | 75 | 976.2 |
| 20260505025720 | 49 | 203 | 0.0 | 2.0 | 0.00 | 0.00 | 0.00 | 74 | 976.2 |
| 20260505025716 | 49 | 309 | 0.0 | 2.0 | 0.00 | 0.00 | 0.00 | 71 | 976.2 |
| 20260505024716 | 49 | 239 | 0.0 | 1.0 | 0.00 | 0.00 | 0.00 | 71 | 976.0 |
| 20260505024215 | 49 | 317 | 0.0 | 1.0 | 0.00 | 0.00 | 0.00 | 72 | 976.0 |
| 20260505023716 | 49 | 218 | 0.0 | 0.0 | 0.00 | 0.00 | 0.00 | 72 | 975.9 |
| 20260505023216 | 49 | 218 | 0.0 | 0.0 | 0.00 | 0.00 | 0.00 | 71 | 975.7 |
| 20260505022716 | 49 | 218 | 0.0 | 0.0 | 0.00 | 0.00 | 0.00 | 70 | 975.7 |
| 20260505022216 | 49 | 218 | 0.0 | 2.0 | 0.00 | 0.00 | 0.00 | 70 | 975.5 |
| 20260505021714 | 49 | 217 | 0.0 | 2.0 | 0.00 | 0.00 | 0.00 | 69 | 975.6 |
| 20260505021214 | 49 | 217 | 0.0 | 0.0 | 0.00 | 0.00 | 0.00 | 69 | 975.5 |
| 20260505020714 | 50 | 281 | 0.0 | 1.0 | 0.00 | 0.00 | 0.00 | 68 | 975.5 |
| 20260505020214 | 50 | 259 | 0.0 | 3.0 | 0.00 | 0.00 | 0.00 | 67 | 975.7 |
| 20260505015713 | 50 | 317 | 0.0 | 3.0 | 0.00 | 0.00 | 0.00 | 67 | 975.7 |
| 20260505015215 | 50 | 288 | 0.0 | 2.0 | 0.00 | 0.00 | 0.00 | 67 | 975.6 |
| 20260505014719 | 51 | 161 | 0.0 | 1.0 | 0.00 | 0.00 | 0.00 | 66 | 975.3 |
| 20260505014715 | 50 | 193 | 0.0 | 0.0 | 0.00 | 0.00 | 0.00 | 66 | 975.6 |
| 20260505013714 | 51 | 231 | 0.0 | 1.0 | 0.00 | 0.00 | 0.00 | 61 | 975.2 |
| 20260505013214 | 51 | 304 | 0.0 | 1.0 | 0.00 | 0.00 | 0.00 | 58 | 975.4 |
| 20260505012712 | 51 | 334 | 1.0 | 10.0 | 0.00 | 0.00 | 0.00 | 62 | 975.5 |
| 20260505012212 | 52 | 320 | 2.0 | 10.0 | 0.00 | 0.00 | 0.00 | 62 | 975.5 |
| 20260505011712 | 53 | 349 | 2.0 | 9.0 | 0.00 | 0.00 | 0.00 | 56 | 975.6 |
| 20260505011212 | 53 | 312 | 2.0 | 11.0 | 0.00 | 0.00 | 0.00 | 53 | 975.6 |
| 20260505010711 | 54 | 326 | 2.0 | 11.0 | 0.00 | 0.00 | 0.00 | 49 | 975.3 |
| 20260505010212 | 55 | 304 | 3.0 | 12.0 | 0.00 | 0.00 | 0.00 | 46 | 975.3 |
| 20260505005712 | 55 | 320 | 4.0 | 12.0 | 0.00 | 0.00 | 0.00 | 46 | 975.2 |
| 20260505005212 | 55 | 322 | 3.0 | 10.0 | 0.00 | 0.00 | 0.00 | 45 | 974.9 |
| 20260505004712 | 54 | 335 | 1.0 | 5.0 | 0.00 | 0.00 | 0.00 | 45 | 974.9 |
| 20260505004212 | 54 | 328 | 0.0 | 2.0 | 0.00 | 0.00 | 0.00 | 47 | 974.9 |
| 20260505003710 | 54 | 262 | 0.0 | 2.0 | 0.00 | 0.00 | 0.00 | 47 | 974.9 |
| 20260505003209 | 55 | 199 | 0.0 | 2.0 | 0.00 | 0.00 | 0.00 | 47 | 974.8 |
| 20260505002709 | 55 | 135 | 0.0 | 1.0 | 0.00 | 0.00 | 0.00 | 46 | 974.9 |
| 20260505002210 | 55 | 155 | 0.0 | 1.0 | 0.00 | 0.00 | 0.00 | 48 | 975.0 |
| 20260505001709 | 55 | 129 | 0.0 | 1.0 | 0.00 | 0.00 | 0.00 | 47 | 974.9 |
| 20260505001210 | 55 | 351 | 0.0 | 1.0 | 0.00 | 0.00 | 0.00 | 48 | 975.0 |
| 20260505000710 | 55 | 181 | 0.0 | 1.0 | 0.00 | 0.00 | 0.00 | 47 | 974.9 |
| 20260505000211 | 55 | 252 | 0.0 | 1.0 | 0.00 | 0.00 | 0.00 | 45 | 974.8 |
| 20260504235710 | 56 | 185 | 1.0 | 1.0 | 0.00 | 0.00 | 0.00 | 46 | 974.9 |
| 20260504235210 | 56 | 111 | 1.0 | 0.0 | 0.00 | 0.00 | 0.00 | 45 | 974.8 |
| 20260504203309 | 67 | 316 | 5.0 | 11.0 | 0.00 | 0.00 | 0.00 | 23 | 973.3 |
| 20260504202813 | 67 | 338 | 6.0 | 15.0 | 0.00 | 0.00 | 0.00 | 24 | 973.4 |
| 20260504202809 | 67 | 11 | 6.0 | 15.0 | 0.00 | 0.00 | 0.00 | 24 | 973.4 |
| 20260504201809 | 66 | 330 | 6.0 | 12.0 | 0.00 | 0.00 | 0.00 | 24 | 973.4 |
| 20260504201310 | 65 | 335 | 6.0 | 12.0 | 0.00 | 0.00 | 0.00 | 24 | 973.5 |
| 20260504200809 | 64 | 312 | 6.0 | 13.0 | 0.00 | 0.00 | 0.00 | 24 | 973.5 |
| 20260504200312 | 64 | 323 | 5.0 | 12.0 | 0.00 | 0.00 | 0.00 | 24 | 973.7 |
| 20260504200308 | 64 | 358 | 6.0 | 13.0 | 0.00 | 0.00 | 0.00 | 25 | 973.6 |
| 20260504195311 | 64 | 328 | 5.0 | 10.0 | 0.00 | 0.00 | 0.00 | 26 | 973.7 |
| 20260504195307 | 64 | 21 | 5.0 | 12.0 | 0.00 | 0.00 | 0.00 | 25 | 973.7 |
| 20260504194305 | 65 | 316 | 6.0 | 11.0 | 0.00 | 0.00 | 0.00 | 26 | 973.9 |
| 20260504193805 | 65 | 4 | 6.0 | 13.0 | 0.00 | 0.00 | 0.00 | 26 | 973.9 |
| 20260504193306 | 65 | 311 | 6.0 | 13.0 | 0.00 | 0.00 | 0.00 | 26 | 973.7 |
| 20260504192810 | 66 | 338 | 5.0 | 12.0 | 0.00 | 0.00 | 0.00 | 24 | 973.7 |
| 20260504192805 | 66 | 311 | 6.0 | 12.0 | 0.00 | 0.00 | 0.00 | 25 | 973.7 |
| 20260504191805 | 67 | 34 | 5.0 | 11.0 | 0.00 | 0.00 | 0.00 | 22 | 973.5 |
| 20260504191311 | 70 | 331 | 2.0 | 11.0 | 0.00 | 0.00 | 0.00 | 20 | 973.4 |
| 20260504191305 | 68 | 23 | 5.0 | 11.0 | 0.00 | 0.00 | 0.00 | 21 | 973.4 |
| 20260504190305 | 71 | 285 | 1.0 | 5.0 | 0.00 | 0.00 | 0.00 | 18 | 973.4 |
| 20260504185805 | 72 | 163 | 0.0 | 3.0 | 0.00 | 0.00 | 0.00 | 19 | 973.3 |
| 20260504185304 | 73 | 122 | 0.0 | 1.0 | 0.00 | 0.00 | 0.00 | 16 | 973.3 |
| 20260504184803 | 72 | 119 | 1.0 | 3.0 | 0.00 | 0.00 | 0.00 | 15 | 973.4 |
| 20260504184308 | 71 | 211 | 1.0 | 4.0 | 0.00 | 0.00 | 0.00 | 18 | 973.6 |
| 20260504184304 | 71 | 203 | 1.0 | 4.0 | 0.00 | 0.00 | 0.00 | 15 | 973.5 |
| 20260504183307 | 68 | 127 | 1.0 | 9.0 | 0.00 | 0.00 | 0.00 | 20 | 973.9 |
| 20260504183302 | 69 | 85 | 0.0 | 3.0 | 0.00 | 0.00 | 0.00 | 20 | 973.7 |
| 20260504182304 | 66 | 138 | 4.0 | 10.0 | 0.00 | 0.00 | 0.00 | 20 | 974.0 |
| 20260504181803 | 64 | 146 | 4.0 | 10.0 | 0.00 | 0.00 | 0.00 | 21 | 974.0 |
| 20260504181303 | 64 | 209 | 3.0 | 9.0 | 0.00 | 0.00 | 0.00 | 23 | 974.2 |
| 20260504180806 | 66 | 198 | 3.0 | 12.0 | 0.00 | 0.00 | 0.00 | 22 | 974.2 |
| 20260504180802 | 65 | 183 | 3.0 | 7.0 | 0.00 | 0.00 | 0.00 | 22 | 974.2 |
| 20260504175801 | 66 | 264 | 2.0 | 12.0 | 0.00 | 0.00 | 0.00 | 21 | 974.2 |
| 20260504175301 | 67 | 239 | 2.0 | 10.0 | 0.00 | 0.00 | 0.00 | 20 | 974.3 |
| 20260504174801 | 68 | 169 | 2.0 | 11.0 | 0.00 | 0.00 | 0.00 | 19 | 974.4 |
| 20260504174305 | 68 | 219 | 2.0 | 10.0 | 0.00 | 0.00 | 0.00 | 20 | 974.7 |
| 20260504174301 | 68 | 221 | 2.0 | 11.0 | 0.00 | 0.00 | 0.00 | 21 | 974.4 |
| 20260504173907 | 67 | 199 | 2.0 | 9.0 | 0.00 | 0.00 | 0.00 | 23 | 974.6 |
| 20260504173407 | 67 | 198 | 2.0 | 9.0 | 0.00 | 0.00 | 0.00 | 24 | 974.8 |
| 20260504172907 | 66 | 3 | 3.0 | 8.0 | 0.00 | 0.00 | 0.00 | 24 | 974.8 |
| 20260504171804 | 65 | 222 | 4.0 | 11.0 | 0.00 | 0.00 | 0.00 | 26 | 974.9 |
| 20260504171800 | 65 | 338 | 4.0 | 11.0 | 0.00 | 0.00 | 0.00 | 26 | 974.9 |
| 20260504170759 | 65 | 198 | 3.0 | 11.0 | 0.00 | 0.00 | 0.00 | 26 | 975.0 |
| 20260504170257 | 65 | 237 | 3.0 | 10.0 | 0.00 | 0.00 | 0.00 | 25 | 975.0 |
| 20260504160400 | 65 | 141 | 2.0 | 8.0 | 0.00 | 0.00 | 0.00 | 24 | 975.5 |
| 20260504150751 | 63 | 249 | 2.0 | 12.0 | 0.00 | 0.00 | 0.00 | 26 | 975.7 |
| 20260504150746 | 63 | 48 | 2.0 | 12.0 | 0.00 | 0.00 | 0.00 | 26 | 975.7 |
| 20260504150352 | 62 | 204 | 2.0 | 8.0 | 0.00 | 0.00 | 0.00 | 27 | 975.9 |
| 20260504140747 | 58 | 210 | 2.0 | 5.0 | 0.00 | 0.00 | 0.00 | 32 | 975.6 |
| 20260504140246 | 58 | 248 | 2.0 | 5.0 | 0.00 | 0.00 | 0.00 | 32 | 975.6 |
| 20260504130750 | 49 | 217 | 0.0 | 1.0 | 0.00 | 0.00 | 0.00 | 41 | 975.5 |
| 20260504130746 | 51 | 243 | 0.0 | 1.0 | 0.00 | 0.00 | 0.00 | 38 | 975.5 |
| 20260504110241 | 39 | 162 | 0.0 | 0.0 | 0.00 | 0.00 | 0.00 | 60 | 975.6 |
| 20260504100238 | 40 | 146 | 0.0 | 0.0 | 0.00 | 0.00 | 0.00 | 57 | 975.9 |
| 20260504081730 | 48 | 208 | 0.0 | 0.0 | 0.00 | 0.00 | 0.00 | 44 | 976.2 |
| 20260504081230 | 49 | 208 | 0.0 | 1.0 | 0.00 | 0.00 | 0.00 | 42 | 976.2 |
| 20260504080735 | 52 | 189 | 0.0 | 2.0 | 0.00 | 0.00 | 0.00 | 36 | 976.3 |
| 20260504080731 | 51 | 208 | 0.0 | 1.0 | 0.00 | 0.00 | 0.00 | 36 | 976.3 |
| 20260504080229 | 51 | 208 | 0.0 | 2.0 | 0.00 | 0.00 | 0.00 | 36 | 976.3 |
| 20260504070227 | 53 | 203 | 0.0 | 1.0 | 0.00 | 0.00 | 0.00 | 34 | 976.7 |